Location: Newark
(11.2914°S, 14.4718°E)
Time: 01:18:40
(UTC+00:00)

Explorer 7 - Pass Details

Date: 25 September 2019
Orbit: 485 x 680 km, 50.3° (Epoch: 13 October)

Event Time Altitude Azimuth Distance (km) Brightness Sun altitude
Rises 04:08:48 0° 358° (N) 2,999 10.5 -10.9°
Reaches altitude 10° 04:12:15 10° 23° (NNE) 2,070 10.0 -10.1°
Maximum altitude 04:14:43 14° 54° (NE) 1,800 10.2 -9.5°
Drops below altitude 10° 04:17:08 10° 85° (E) 2,033 11.4 -8.9°
Sets 04:20:27 0° 110° (ESE) 2,905 12.2 -8.1°
